GFSNW_con_lsi_060.txt.gz
Lid_Strength_Index
7 7 7 7 7 8 8 9 12 6 6 11 10 12 10 7 8 6 8 8 10 11 11 12 12 13 11 7 8 11 10 11 16 14 9 8 9 11 11 14 16 14 14 13
7 7 7 7 8 8 10 10 11 7 7 13 13 11 9 8 8 8 8 9 9 9 10 13 11 10 8 8 8 10 9 12 17 16 12 10 12 10 10 11 12 15 16 13
7 7 8 8 9 8 9 11 14 11 9 10 12 12 10 10 7 8 8 8 9 10 11 10 11 11 9 7 8 8 7 11 13 15 14 11 13 11 11 11 16 14 14 12
7 7 8 8 9 8 10 12 13 12 14 13 12 11 10 11 11 7 7 9 9 10 11 11 11 10 9 8 8 8 8 14 12 12 11 11 12 12 11 13 12 15 12 12
7 7 8 9 9 9 13 14 14 13 14 15 13 12 11 10 9 9 10 10 9 8 11 10 11 10 10 11 8 9 9 14 12 14 12 12 13 11 11 11 11 11 11 11
7 7 8 9 9 11 13 14 13 12 16 14 13 14 13 11 9 8 7 8 9 10 9 8 7 7 9 8 9 10 10 12 13 15 13 13 15 13 12 11 10 10 13 10
7 8 8 9 9 11 11 13 12 13 16 14 15 15 13 11 11 10 7 7 8 8 7 7 7 7 8 8 9 8 11 12 12 15 14 18 13 11 11 11 11 10 9 9
7 8 8 9 9 11 11 13 13 13 16 15 16 16 15 13 11 11 8 8 8 7 7 9 11 10 10 10 9 9 9 10 13 15 15 13 12 10 10 11 11 9 9 8
8 8 8 9 9 10 11 13 12 12 14 16 15 16 16 14 12 10 9 7 8 5 7 10 14 15 13 13 11 9 9 9 11 13 17 17 12 9 8 8 13 8 8 8
8 8 8 8 9 10 10 12 12 11 15 14 15 15 15 14 13 12 11 12 8 6 9 12 13 13 11 14 14 13 12 11 14 13 15 12 9 9 8 14 12 8 8 7
8 8 8 8 9 9 10 12 11 11 14 14 13 13 15 14 13 12 12 10 9 9 11 11 12 12 11 12 12 12 12 13 13 13 15 16 9 8 11 10 9 9 9 8
8 8 8 8 9 9 10 12 10 11 12 13 12 12 11 11 11 11 11 11 11 11 10 9 10 11 11 11 14 11 13 10 11 11 11 9 8 9 9 10 11 10 10 9
7 7 8 8 8 9 10 10 10 10 13 14 13 14 12 10 10 9 11 10 10 10 9 9 10 12 10 12 12 11 10 9 10 10 9 10 9 7 9 8 9 9 10 9
7 7 8 8 9 9 9 9 11 11 12 14 15 11 12 10 9 9 9 9 9 10 9 10 10 11 11 11 11 11 10 10 12 11 9 9 8 8 9 9 9 10 9 9
7 7 8 9 9 10 10 10 10 10 11 14 14 13 12 11 10 10 9 9 10 10 11 11 11 11 11 11 12 13 11 13 13 13 10 11 10 9 9 10 10 10 10 9
7 7 8 9 10 11 10 11 10 9 10 12 15 13 12 11 10 10 10 10 10 10 11 12 12 11 11 13 14 12 12 11 11 12 10 10 10 9 9 9 9 8 8 8
7 8 9 9 9 10 11 12 10 9 10 12 15 14 12 11 11 11 11 10 10 10 10 11 12 12 11 12 14 12 10 10 9 9 10 11 10 10 9 8 8 8 8 8
7 8 9 8 9 10 10 9 9 10 12 12 15 16 13 11 12 12 10 11 11 10 11 11 12 11 12 14 11 11 9 9 9 9 9 10 9 9 9 9 9 10 9 8
8 8 9 11 12 12 11 8 9 10 10 14 15 15 16 11 11 10 11 11 13 11 12 12 11 12 14 11 10 10 10 10 10 9 10 10 10 10 10 10 10 10 9 8
8 11 13 14 12 9 8 10 11 11 12 12 15 13 14 12 11 11 12 11 12 14 12 11 12 12 9 9 8 8 8 9 9 11 12 11 11 11 11 11 11 10 10 10
12 14 15 12 9 11 12 14 13 14 14 13 14 13 13 10 13 12 10 12 12 14 13 13 13 12 9 8 8 7 8 8 8 9 9 9 10 11 11 11 11 11 11 11
12 12 11 13 14 15 16 19 15 15 15 13 13 12 12 11 10 11 11 13 12 15 11 13 14 10 9 8 8 8 8 8 8 8 9 9 9 9 10 11 11 12 12 11
12 14 16 15 18 19 17 20 17 15 14 14 13 14 12 11 11 12 12 14 14 11 13 14 12 10 8 9 9 9 9 9 9 9 9 9 8 8 9 9 10 12 12 11
15 16 19 17 18 17 17 15 14 14 13 13 13 13 13 12 13 13 15 13 12 15 16 15 11 10 10 10 10 11 11 10 11 10 10 10 9 9 8 8 9 11 12 12
16 15 19 19 18 17 17 17 14 13 12 13 14 14 13 14 14 13 14 16 17 14 15 13 11 11 11 11 11 11 11 11 11 10 10 10 9 8 8 7 8 9 12 12
16 18 19 18 16 18 16 17 16 13 13 13 13 15 16 16 15 16 17 18 18 14 13 11 11 11 11 11 11 11 11 11 10 10 10 9 8 7 7 7 8 9 11 12
16 18 15 16 15 16 16 15 15 14 13 15 15 18 18 15 17 17 14 16 13 11 11 11 10 10 10 10 10 10 10 10 10 10 9 9 7 6 7 8 7 8 10 12

GFSNW_con_lsi_063.txt.gz
Lid_Strength_Index
6 7 6 7 7 7 8 8 12 6 5 11 10 11 10 8 7 6 8 8 9 11 11 12 12 13 11 7 7 10 8 11 16 14 9 8 9 10 10 14 16 13 14 13
6 7 7 7 7 7 7 10 11 5 6 13 12 11 10 8 8 8 8 9 8 8 10 13 11 10 8 7 8 10 8 13 17 16 12 9 11 10 10 10 12 15 16 13
6 7 7 7 7 7 8 9 14 10 9 9 11 12 11 10 7 7 7 8 8 9 10 9 11 11 9 7 7 8 8 11 13 16 13 11 13 11 10 11 15 14 13 11
6 7 7 7 8 7 8 10 11 10 14 11 11 10 10 10 10 7 7 8 8 9 11 10 11 10 9 8 7 7 8 13 12 11 11 11 11 11 11 13 12 14 12 11
7 7 7 8 8 7 10 12 12 11 10 11 11 11 11 11 9 9 9 9 8 8 10 10 11 10 10 10 8 9 8 13 12 13 11 11 12 11 10 10 10 11 10 11
7 7 7 8 7 8 11 11 10 10 13 12 12 12 11 11 9 7 7 8 8 9 9 7 7 7 8 7 9 9 10 12 14 15 12 12 14 12 11 10 9 10 12 9
7 7 8 8 7 8 9 10 9 11 14 12 12 13 11 12 10 9 7 6 8 7 6 6 6 7 7 7 8 7 10 11 12 15 13 18 12 10 10 11 10 9 9 8
7 7 8 8 8 9 9 10 10 11 13 12 14 13 13 11 11 9 8 7 6 5 6 9 10 10 10 9 8 8 8 9 13 15 15 12 11 10 10 11 11 8 9 8
7 8 8 9 9 9 10 10 9 9 13 13 12 13 12 12 11 10 9 6 5 5 7 9 13 14 12 13 11 8 8 8 11 13 16 17 11 9 7 8 13 8 8 8
7 8 8 9 9 9 9 10 10 9 13 13 13 13 14 13 12 10 9 9 7 5 9 11 12 13 10 14 13 13 12 11 13 14 15 12 9 8 7 14 13 9 9 9
7 8 8 8 9 9 9 11 9 9 12 13 12 12 13 13 13 12 12 9 8 8 11 11 11 11 10 11 10 11 12 13 13 13 15 16 8 8 11 10 9 9 9 9
8 8 8 9 9 9 9 12 9 8 11 13 11 11 11 11 11 11 11 10 9 8 10 9 9 11 10 11 14 9 13 10 11 11 11 8 8 8 8 8 9 9 9 9
7 8 8 8 8 9 9 10 9 9 12 12 12 13 11 9 10 9 12 10 9 9 8 8 9 11 9 12 11 10 9 8 10 10 8 8 8 7 7 7 8 8 8 9
7 8 8 8 9 9 9 10 9 8 10 13 14 10 12 10 9 9 9 10 9 9 8 8 9 10 8 9 10 10 9 10 11 11 9 9 7 7 7 8 7 7 7 7
7 8 8 9 9 9 9 10 9 9 9 13 14 11 11 10 9 9 9 10 10 10 9 9 10 9 10 9 10 11 9 11 12 12 10 10 10 8 8 9 9 8 9 10
7 8 9 9 9 9 10 12 10 9 7 11 14 11 11 11 10 10 10 10 10 10 10 10 10 10 10 12 13 10 9 10 9 11 9 9 9 8 9 9 9 9 9 9
8 9 10 9 9 10 12 12 10 9 8 10 14 14 11 10 10 10 10 9 10 10 10 10 10 10 10 11 13 10 9 9 8 8 9 10 9 10 9 9 9 8 8 8
8 9 9 9 10 10 11 10 10 8 9 9 13 15 13 10 12 12 9 10 10 10 10 10 11 10 10 13 10 9 9 9 9 8 8 9 9 9 9 9 9 10 10 9
8 9 10 10 12 12 11 9 9 8 8 12 12 14 15 10 11 10 10 9 11 10 11 11 11 11 13 10 9 10 9 9 10 9 9 9 10 9 9 9 10 11 11 10
9 11 12 14 13 10 9 9 10 10 10 10 14 12 14 11 11 12 12 10 11 13 11 10 12 11 8 8 8 8 8 8 8 11 11 10 11 10 10 10 9 10 10 10
12 14 16 12 10 11 12 13 12 12 12 11 12 12 13 10 12 12 11 13 12 14 12 12 11 12 9 7 8 8 8 8 8 8 8 8 9 10 10 9 9 9 9 10
12 12 11 11 13 14 15 17 14 13 13 12 12 12 11 11 10 12 11 14 13 14 11 14 15 10 9 8 9 9 9 9 9 9 9 9 9 9 9 9 9 9 9 10
12 13 14 13 17 17 16 19 16 15 12 13 12 13 11 11 11 13 13 15 14 11 14 15 12 10 10 10 9 10 9 9 9 10 9 9 10 9 9 9 8 8 8 8
12 15 19 16 18 16 14 13 12 12 11 11 11 13 12 12 13 13 15 12 12 15 17 15 11 10 10 10 10 10 11 10 10 11 10 10 10 10 8 7 7 8 8 8
15 14 18 18 18 17 16 14 13 12 10 12 13 12 11 13 14 13 13 15 17 15 14 12 10 10 10 11 10 10 10 10 10 10 10 11 10 10 9 7 6 6 7 8
15 17 19 18 16 17 15 14 15 12 12 12 12 14 15 15 14 16 16 16 17 13 11 10 10 10 10 10 10 10 9 10 10 10 9 9 10 9 8 6 6 5 6 7
15 17 15 14 14 15 14 13 13 12 13 14 14 16 17 15 16 17 14 15 12 10 10 10 10 10 10 10 10 10 10 10 9 9 9 9 8 8 8 7 6 6 6 7

GFSNW_con_lsi_069.txt.gz
Lid_Strength_Index
4 3 2 4 5 5 7 10 15 7 7 13 12 14 12 9 8 7 8 8 10 12 11 12 13 14 12 8 9 12 10 13 16 16 10 9 11 12 12 17 17 16 17 17
4 2 3 4 5 5 10 12 12 7 8 17 14 11 11 10 9 8 8 9 8 8 11 13 12 11 8 8 8 11 10 15 17 16 13 11 13 12 11 12 13 17 18 17
3 2 3 5 5 5 9 13 16 11 10 12 15 14 13 12 9 9 8 9 9 10 11 9 12 11 9 8 8 6 8 13 16 19 16 13 15 12 11 13 18 16 15 15
2 3 4 5 5 5 9 13 15 13 15 15 14 13 12 12 12 9 8 10 10 10 12 11 12 10 10 8 7 9 10 15 16 13 12 12 13 13 12 14 13 16 13 14
3 3 5 5 5 5 11 14 14 13 14 13 14 13 13 12 12 11 11 10 9 9 11 12 12 10 10 11 10 11 10 16 15 17 13 13 14 12 12 12 12 12 12 12
3 4 5 5 5 7 12 13 13 13 13 15 15 14 13 11 11 10 9 9 10 11 10 10 10 9 8 9 10 11 11 15 18 19 15 15 18 14 13 12 12 11 14 12
3 5 6 5 5 7 12 13 13 15 16 15 14 12 12 11 12 12 11 10 9 9 8 9 9 10 9 9 10 9 11 13 16 20 17 23 15 12 11 11 11 11 11 10
4 5 6 6 5 6 12 13 13 15 17 15 13 13 13 13 12 12 11 11 10 8 9 11 13 13 12 12 11 11 10 12 16 18 19 16 14 12 12 13 13 11 11 11
5 5 6 6 6 6 12 13 12 13 15 17 15 14 13 15 15 14 12 10 9 9 10 11 16 17 14 15 13 10 10 11 15 17 20 20 14 11 9 10 15 11 11 12
5 6 6 6 6 7 11 13 12 14 17 16 15 16 15 14 14 15 13 12 11 9 12 14 15 16 12 16 15 15 14 14 16 16 18 15 11 10 9 16 16 11 11 11
5 6 6 6 6 7 11 13 11 14 17 16 14 14 15 15 15 15 15 13 13 13 14 14 14 15 14 14 13 13 14 16 16 15 18 19 11 10 13 12 11 11 11 11
6 7 7 7 6 9 10 13 12 12 15 16 13 13 12 13 14 14 14 14 14 13 14 14 15 15 14 15 17 13 14 13 14 14 14 11 10 11 11 11 12 11 11 11
6 7 7 7 8 8 10 12 12 13 16 16 16 15 13 11 11 11 15 14 12 13 13 14 14 15 14 16 15 15 13 11 12 12 11 11 11 11 10 11 11 11 10 10
7 7 7 8 8 9 10 13 12 13 14 18 17 12 14 11 11 11 11 12 12 12 13 15 14 15 13 15 14 14 12 11 13 13 13 12 11 11 11 10 10 10 10 10
6 7 8 8 8 9 11 12 12 11 14 18 17 14 12 12 11 12 11 12 13 14 15 17 16 14 14 14 15 15 12 13 14 14 12 13 12 11 10 11 11 10 10 10
7 7 8 8 9 9 12 15 12 11 12 16 19 14 14 12 12 13 13 13 13 14 15 16 15 13 15 17 17 13 13 12 12 13 11 11 11 10 11 11 11 10 10 10
7 7 8 8 10 13 13 15 13 11 11 16 19 19 14 12 13 14 14 13 14 14 15 15 15 15 15 16 17 13 13 11 11 10 11 12 11 12 11 10 10 9 10 10
7 8 8 9 10 11 15 13 10 10 13 15 21 19 17 13 16 16 13 15 14 15 15 14 15 15 15 17 14 13 12 12 12 12 12 12 12 12 12 11 11 11 11 11
7 8 8 11 13 15 14 11 10 11 14 18 20 22 23 14 13 13 14 14 16 14 15 15 15 16 18 14 13 13 13 13 13 12 12 12 13 12 12 12 12 12 12 11
7 10 13 16 15 11 11 13 15 16 15 16 20 19 18 14 13 14 14 14 15 20 15 15 15 16 13 13 13 12 12 11 12 16 15 14 14 13 13 13 12 12 12 11
13 16 16 14 11 15 16 18 20 18 19 18 19 19 17 14 16 15 13 15 14 17 17 17 16 15 14 13 13 13 13 12 12 12 12 12 12 14 13 12 12 12 12 12
13 13 13 14 16 19 22 25 19 18 20 17 17 16 16 15 13 16 14 16 15 17 15 16 18 14 12 12 13 13 13 13 12 12 12 12 11 11 12 12 13 13 12 11
12 15 18 20 23 25 25 25 21 22 18 18 17 19 16 15 13 14 14 17 17 14 17 18 15 14 13 14 15 13 13 12 12 11 11 11 11 11 11 12 11 10 10 9
16 20 23 24 26 23 19 19 20 18 17 16 16 18 17 15 16 15 24 16 16 23 25 23 17 13 14 14 13 14 14 13 13 13 14 13 13 12 11 10 10 10 10 9
21 21 24 25 20 20 20 19 18 18 16 16 17 18 17 18 20 17 19 20 27 22 22 18 18 15 15 15 14 14 14 16 15 14 15 14 14 13 11 10 10 10 9 9
21 22 23 20 21 22 20 19 17 18 17 18 17 20 22 21 21 22 25 25 26 22 20 17 16 16 15 15 15 14 14 14 13 13 14 13 13 13 12 11 11 10 9 8
21 21 18 19 20 20 19 18 18 16 17 20 20 23 22 19 22 22 22 23 21 19 18 18 15 15 15 15 15 14 14 13 13 14 14 13 12 15 15 14 10 10 8 8

GFSNW_con_lsi_072.txt.gz
Lid_Strength_Index
1 2 2 3 3 3 5 9 14 8 8 12 11 14 11 9 8 7 8 8 10 12 12 13 14 15 13 8 9 12 11 13 16 16 11 10 11 13 13 18 18 17 18 17
1 2 4 3 3 4 8 11 11 7 8 15 14 11 12 9 9 8 8 10 9 9 12 14 13 12 9 8 9 12 11 15 20 17 13 11 13 12 11 12 14 18 19 17
2 4 4 3 2 3 6 11 15 11 9 11 13 13 13 12 8 9 8 9 8 10 11 11 13 12 9 8 9 7 8 13 16 19 16 13 15 13 12 13 18 16 16 15
5 5 5 2 4 3 6 11 16 13 15 14 13 13 12 13 13 10 9 10 9 10 13 12 12 10 10 9 7 9 10 16 16 14 13 13 13 13 13 14 14 17 14 14
5 5 4 4 4 4 9 13 15 14 15 14 13 13 14 13 12 12 11 11 10 10 12 12 13 10 10 12 11 11 11 17 16 17 13 14 15 13 13 12 12 13 13 13
5 5 4 4 4 5 10 12 13 13 13 15 14 14 13 11 11 11 10 10 10 11 10 10 10 8 9 9 11 11 12 15 18 19 16 15 17 15 13 13 12 12 14 12
5 4 4 4 4 6 11 12 13 14 16 15 14 13 12 12 12 12 11 10 10 10 8 9 9 8 10 10 11 9 13 14 16 20 18 23 15 13 12 12 12 12 11 11
4 4 4 5 5 6 11 13 13 14 16 15 13 13 13 12 12 13 12 11 10 8 9 12 13 13 13 12 10 10 10 13 16 19 20 17 15 13 13 13 14 12 13 12
4 5 5 5 5 5 11 13 12 13 15 18 15 14 14 15 16 14 12 11 9 9 10 12 16 17 16 16 15 11 11 12 15 17 19 20 15 12 11 11 16 13 13 13
4 5 5 5 5 6 10 13 12 13 17 16 15 15 15 14 15 15 14 13 11 10 13 14 16 17 13 16 16 15 14 13 16 17 19 16 12 11 10 17 16 12 12 12
4 5 6 6 6 7 11 13 11 13 17 16 14 14 16 15 14 15 14 13 13 13 15 15 15 16 15 16 15 15 15 16 17 16 17 18 11 11 13 13 12 11 12 12
5 6 6 6 6 8 10 14 11 11 15 15 13 14 13 13 14 14 14 14 14 13 15 15 15 15 16 16 17 14 16 14 15 14 14 12 12 12 11 11 12 12 12 11
6 6 7 6 7 8 10 13 12 13 16 16 16 16 13 11 12 12 14 14 12 13 13 14 15 15 15 17 16 16 15 13 14 13 13 13 12 11 11 11 11 11 11 11
6 6 6 6 7 8 10 13 11 13 15 18 17 12 14 12 11 12 12 12 12 12 13 15 15 15 14 15 15 15 13 13 14 15 14 13 12 12 11 11 11 11 10 10
6 7 7 7 7 9 11 12 12 11 15 18 17 14 13 13 12 12 12 13 14 14 15 17 17 15 15 16 15 16 14 14 15 15 13 14 13 12 11 12 11 11 11 11
6 7 7 7 8 9 13 14 11 10 12 17 19 14 14 13 13 13 13 14 14 15 15 16 16 14 15 17 18 15 14 13 12 13 13 12 11 10 11 12 11 10 10 11
6 7 7 8 9 12 14 15 13 11 12 16 19 18 15 13 14 14 15 14 15 15 16 16 16 16 16 17 18 15 14 12 12 12 12 13 12 13 12 12 11 11 11 11
6 7 8 8 9 11 14 13 10 11 14 17 21 18 18 14 16 16 15 16 15 16 16 16 16 16 16 18 15 14 13 13 13 13 13 13 13 13 13 12 12 13 13 13
7 8 8 12 13 16 15 10 10 13 15 19 21 22 22 15 16 15 15 15 17 15 16 16 15 16 19 15 14 14 13 14 13 13 13 13 13 13 13 13 13 14 13 13
7 11 14 16 15 10 10 12 15 17 17 17 22 20 19 17 16 16 18 15 18 23 16 15 16 17 15 15 14 13 13 13 13 17 16 14 15 13 14 13 13 13 12 12
12 15 16 13 11 14 16 20 21 20 21 19 21 20 19 15 18 16 15 16 15 18 17 18 19 16 15 14 15 14 14 14 14 13 13 13 13 14 13 12 12 12 12 12
12 13 12 14 16 18 20 21 20 21 22 19 19 18 17 16 15 17 16 18 16 21 15 17 19 17 15 15 15 14 14 15 14 13 13 13 12 12 13 13 14 14 13 12
11 15 17 18 21 24 25 27 25 21 19 20 19 20 17 16 15 16 16 21 21 15 18 19 19 16 14 15 16 15 14 14 13 13 13 12 12 12 12 13 13 12 11 11
15 20 23 22 23 23 22 20 21 19 19 18 18 19 18 17 19 17 23 17 17 25 27 24 20 16 15 15 15 15 16 15 14 16 15 14 14 13 12 12 12 11 12 11
17 20 21 25 20 19 21 23 20 20 17 18 19 19 18 21 21 18 19 20 27 23 23 21 19 17 17 16 15 15 16 18 18 18 17 17 16 14 13 11 11 12 12 11
19 23 24 20 21 22 22 21 20 19 18 19 19 21 23 22 21 23 25 25 25 22 22 18 18 17 17 16 15 15 16 16 15 16 16 15 16 15 13 12 12 12 11 11
21 23 19 19 23 23 21 18 18 17 19 22 21 24 23 20 24 23 23 23 21 20 19 19 17 16 16 16 16 15 15 15 15 16 15 15 15 17 16 15 12 13 11 11

GFSNW_con_lsi_075.txt.gz
Lid_Strength_Index
-1 -0 1 1 2 3 4 7 12 7 7 13 14 16 12 8 9 8 9 9 10 13 12 13 15 15 13 9 10 13 12 14 16 15 11 10 12 14 14 18 19 19 19 18
-1 0 0 3 4 3 6 9 10 6 8 17 16 11 11 9 9 9 9 10 9 9 12 15 13 12 9 8 10 12 12 15 21 17 14 12 14 13 12 14 16 19 20 17
-0 0 2 3 4 3 5 10 14 10 10 12 14 12 11 11 7 8 8 9 9 11 12 11 13 13 9 8 9 7 9 14 16 19 16 14 16 14 12 14 19 17 17 16
0 2 2 3 4 3 5 10 13 12 15 13 13 11 11 11 11 8 9 10 10 11 14 13 13 12 11 9 8 10 11 16 17 14 13 13 14 14 13 15 15 17 15 15
1 2 3 4 4 3 7 12 13 13 15 13 13 12 12 12 11 11 11 11 10 10 12 12 13 11 12 13 11 12 12 17 16 17 14 14 14 14 13 13 13 13 13 14
2 3 4 4 3 3 8 10 11 14 12 15 13 13 13 12 11 10 10 10 10 11 11 11 11 9 10 11 12 12 13 16 18 19 16 16 18 16 14 13 12 12 15 12
2 3 3 2 3 6 8 11 12 15 15 15 13 12 12 11 12 12 11 10 11 10 9 9 8 9 10 10 11 10 13 15 17 21 18 22 16 14 13 13 13 12 12 12
3 4 3 3 5 6 9 11 13 14 16 15 12 12 12 11 12 13 12 11 10 9 10 12 13 13 13 12 11 11 11 14 17 20 20 17 15 14 13 14 14 13 13 13
3 4 4 3 4 7 10 12 13 13 14 17 16 14 12 13 14 14 12 10 9 9 11 13 17 18 16 16 14 10 11 12 15 17 20 20 15 13 11 11 16 13 13 13
4 4 4 4 4 7 10 12 12 13 16 16 16 15 13 13 14 15 14 13 11 11 14 15 16 18 14 17 17 16 13 13 15 16 19 16 13 11 11 17 16 13 12 13
4 5 5 4 5 7 10 13 12 13 16 15 15 14 16 15 14 15 14 13 13 13 15 15 16 17 16 17 16 16 16 17 17 16 16 18 12 11 14 13 13 12 12 12
5 5 6 6 6 8 9 14 11 11 14 15 14 14 13 14 14 14 15 15 14 13 15 15 16 16 17 17 18 16 17 15 16 15 15 13 13 13 12 12 12 12 13 12
5 6 7 6 6 7 9 13 12 13 15 16 15 16 13 12 12 12 14 14 13 13 14 15 15 15 15 18 17 18 16 14 15 14 14 15 14 13 12 12 12 12 11 11
6 6 7 6 7 8 9 12 12 13 15 17 16 12 14 12 12 12 12 12 13 13 14 16 15 15 15 16 15 15 14 14 15 15 15 15 13 13 13 12 12 12 11 11
6 6 6 7 7 8 11 12 12 12 14 17 17 14 13 13 13 13 12 13 14 15 16 17 17 16 16 17 16 17 15 15 15 16 14 14 14 12 11 13 13 12 12 12
6 6 6 7 8 9 13 13 12 11 12 16 19 15 15 13 13 14 14 14 15 16 16 17 17 15 16 18 18 16 15 14 14 14 14 13 13 12 13 13 13 12 12 12
6 7 6 8 9 12 15 15 12 10 12 16 18 19 15 14 15 15 15 15 15 16 17 17 17 16 17 17 18 16 15 14 14 14 13 14 13 14 13 14 12 12 12 12
7 7 7 8 9 11 15 13 9 10 14 16 20 18 18 15 17 17 15 16 16 16 17 17 17 16 17 18 16 15 14 15 15 14 14 14 14 14 14 13 13 13 13 13
6 7 8 12 14 16 15 10 11 12 14 20 20 21 22 15 17 16 16 16 17 16 17 17 16 17 20 16 16 15 14 14 15 14 15 15 15 14 14 14 14 14 13 13
6 10 13 17 15 10 11 14 17 18 16 17 21 18 20 18 18 18 18 16 18 23 17 16 17 18 15 16 15 14 14 14 14 18 17 16 17 15 15 14 13 13 13 12
12 15 16 14 11 15 17 20 21 19 20 18 21 21 19 16 20 18 16 19 17 23 20 19 22 20 16 16 16 15 15 16 15 15 14 15 15 15 14 13 12 12 12 13
11 12 12 15 17 20 22 25 21 20 22 20 19 18 17 17 16 18 17 19 18 23 16 21 23 18 16 16 16 16 16 16 15 15 14 14 13 14 14 14 14 14 14 13
12 14 17 18 21 25 27 27 25 24 20 18 19 19 18 17 16 18 20 23 22 16 18 22 20 17 16 16 17 16 15 15 14 14 14 14 14 13 14 14 13 14 13 11
15 19 20 20 25 25 23 22 21 18 17 18 19 19 19 17 19 19 24 18 19 23 27 24 21 17 16 16 16 16 17 16 15 17 17 16 15 15 13 13 14 13 13 11
17 19 21 25 20 19 20 22 19 20 18 18 19 20 19 21 21 19 19 21 27 23 23 21 20 18 17 17 16 16 16 18 19 19 19 19 18 16 15 14 13 13 12 12
19 23 23 20 21 20 22 24 22 20 19 19 19 22 23 22 21 23 25 24 25 23 22 19 19 18 17 17 16 16 16 17 17 18 18 17 17 16 16 15 14 13 13 12
22 22 18 19 20 20 20 19 19 18 20 22 22 24 23 21 24 24 24 24 23 21 21 20 18 17 17 17 17 16 16 16 17 18 17 17 17 20 18 16 14 14 12 13